FW0708 Weather Reports


Display with metric or nautical units.
time (UTC)temp
F
wind
direction
speed
MPH
gust
MPH
rain 1hr
in
rain 24hr
in
rain mn
in
humidity
%
barometer
mb
20260904211551 68 16 5.0 10.0 0.00 0.69 0.60 92 1013.3
20260904210051 68 351 3.0 10.0 0.00 0.69 0.60 92 1013.1
20260904204551 68 353 4.0 10.0 0.00 0.69 0.60 92 1013.1
20260904203049 68 30 6.0 11.0 0.00 0.69 0.60 92 1013.1
20260904201554 68 29 4.0 10.0 0.00 0.69 0.60 92 1013.2
20260904200058 68 4 4.0 9.0 0.00 0.69 0.60 92 1013.1
20260904194549 68 29 3.0 11.0 0.00 0.69 0.60 92 1013.0
20260904193045 68 34 4.0 10.0 0.00 0.69 0.60 91 1012.8
20260904191544 69 2 6.0 10.0 0.00 0.69 0.60 91 1012.7
20260904190044 69 8 3.0 10.0 0.00 0.69 0.60 90 1012.6
20260904184604 70 354 1.0 8.0 0.00 0.69 0.60 91 1012.4
20260904183042 70 42 3.0 6.0 0.00 0.69 0.60 91 1012.4
20260904181542 69 359 4.0 7.0 0.00 0.69 0.60 90 1012.4
20260904180041 70 12 2.0 7.0 0.00 0.69 0.60 90 1012.4
20260904174609 70 41 1.0 9.0 0.00 0.69 0.60 90 1012.2
20260904173045 70 10 3.0 10.0 0.00 0.69 0.60 91 1012.2
20260904171539 70 27 4.0 7.0 0.00 0.69 0.60 91 1012.2
20260904170047 70 38 3.0 9.0 0.00 0.69 0.60 92 1012.1
20260904164538 71 336 3.0 8.0 0.00 0.69 0.60 94 1012.0
20260904163049 70 34 1.0 4.0 0.00 0.69 0.60 96 1011.9
20260904161535 69 18 2.0 6.0 0.00 0.69 0.60 97 1011.9
20260904160034 69 6 2.0 4.0 0.00 0.69 0.60 97 1011.8
20260904154532 69 22 2.0 4.0 0.00 0.69 0.60 97 1011.5
20260904153033 70 273 2.0 4.0 0.00 0.69 0.60 98 1011.5
20260904151533 70 273 1.0 3.0 0.00 0.69 0.60 98 1011.4
20260904150035 70 273 0.0 2.0 0.00 0.69 0.60 98 1011.2
20260904144529 70 273 1.0 2.0 0.00 0.69 0.60 98 1011.2
20260904143027 69 273 0.0 3.0 0.00 0.69 0.60 98 1011.1
20260904141523 69 273 1.0 3.0 0.00 0.69 0.60 98 1010.9
20260904140020 69 273 0.0 0.0 0.00 0.69 0.60 98 1010.9
20260904134517 68 273 0.0 0.0 0.00 0.69 0.60 98 1010.8
20260904133014 68 273 0.0 0.0 0.00 0.69 0.60 98 1010.8
20260904131510 67 273 0.0 0.0 0.00 0.69 0.60 98 1010.6
20260904130010 67 273 0.0 1.0 0.00 0.69 0.60 98 1010.5
20260904124506 66 273 0.0 0.0 0.00 0.69 0.60 98 1010.3
20260904123003 66 273 0.0 0.0 0.00 0.69 0.60 98 1010.1
20260904121502 66 273 0.0 1.0 0.00 0.69 0.60 98 1010.0
20260904120110 66 273 0.0 2.0 0.00 0.69 0.60 98 1009.8
20260904114559 66 273 0.0 2.0 0.00 0.69 0.60 98 1009.9
20260904113059 66 273 0.0 2.0 0.00 0.69 0.60 98 1009.6
20260904111558 66 273 1.0 2.0 0.00 0.69 0.60 98 1009.4
20260904110058 66 273 0.0 2.0 0.00 0.69 0.60 97 1009.3
20260904104557 66 273 0.0 1.0 0.00 0.69 0.60 97 1009.1
20260904103102 65 273 0.0 2.0 0.01 0.69 0.60 97 1009.0
20260904101556 65 273 0.0 3.0 0.51 0.69 0.60 97 1008.9
20260904100056 65 277 1.0 3.0 0.55 0.69 0.60 97 1009.4
20260904094557 65 294 2.0 9.0 0.56 0.69 0.60 97 1009.4
20260904093105 65 29 4.0 18.0 0.56 0.68 0.59 97 1008.9
20260904091553 66 217 9.0 14.0 0.05 0.17 0.08 97 1012.1
20260904090052 66 358 3.0 8.0 0.02 0.13 0.04 97 1009.8
20260904084551 66 146 0.0 3.0 0.01 0.12 0.03 97 1009.7
20260904083051 66 139 1.0 3.0 0.01 0.12 0.03 97 1009.5
20260904081550 65 182 0.0 2.0 0.01 0.12 0.03 97 1009.8
20260904080049 65 85 0.0 4.0 0.00 0.11 0.02 97 1009.5
20260904074546 65 78 0.0 8.0 0.00 0.11 0.02 97 1009.9
20260904073054 65 76 0.0 9.0 0.00 0.11 0.02 97 1010.1
20260904071545 66 89 5.0 11.0 0.00 0.11 0.02 97 1010.0
20260904070045 65 64 0.0 6.0 0.00 0.11 0.02 97 1010.2
20260904064541 65 66 0.0 5.0 0.00 0.11 0.02 96 1010.3
20260904063040 65 35 3.0 10.0 0.00 0.11 0.02 96 1010.8
20260904061537 65 102 1.0 10.0 0.00 0.11 0.02 96 1011.0
20260904060034 65 49 0.0 6.0 0.02 0.11 0.02 96 1011.3
20260904054533 65 5 1.0 10.0 0.03 0.11 0.02 96 1011.0
20260904053033 65 41 3.0 11.0 0.07 0.11 0.02 96 1011.1
20260904051529 64 80 0.0 7.0 0.07 0.11 0.02 95 1011.5
20260904050026 65 23 1.0 24.0 0.09 0.09 0.00 94 1011.6
20260904044526 66 331 9.0 16.0 0.08 0.08 0.08 94 1011.4
20260904043025 66 311 5.0 15.0 0.04 0.04 0.04 93 1011.5
20260904041525 67 326 2.0 5.0 0.04 0.04 0.04 94 1011.2
20260904040024 67 257 3.0 7.0 0.00 0.00 0.00 93 1011.2
20260904034527 67 55 0.0 0.0 0.00 0.00 0.00 92 1010.5
20260904033034 67 54 0.0 1.0 0.00 0.00 0.00 92 1010.8
20260904031522 67 66 0.0 2.0 0.00 0.00 0.00 91 1010.7
20260904030022 68 66 0.0 0.0 0.00 0.00 0.00 90 1010.5
20260904024522 68 66 0.0 0.0 0.00 0.00 0.00 89 1010.2
20260904023021 68 66 0.0 0.0 0.00 0.00 0.00 88 1010.1
20260904021522 69 66 0.0 3.0 0.00 0.00 0.00 88 1010.0
20260904020020 69 74 0.0 4.0 0.00 0.00 0.00 88 1010.0
20260904014519 69 67 4.0 10.0 0.00 0.00 0.00 89 1009.8
20260904013019 69 87 2.0 8.0 0.00 0.00 0.00 88 1010.2
20260904011518 69 66 2.0 7.0 0.00 0.00 0.00 88 1010.0
20260904010018 69 48 4.0 10.0 0.00 0.00 0.00 88 1009.8
20260904004517 69 52 0.0 8.0 0.00 0.00 0.00 88 1010.1
20260904003017 69 74 2.0 8.0 0.00 0.00 0.00 87 1010.0
20260904001517 69 59 4.0 11.0 0.00 0.00 0.00 86 1010.0
20260904000016 69 16 2.0 14.0 0.00 0.00 0.00 84 1009.9
20260903234515 70 62 5.0 15.0 0.00 0.00 0.00 83 1009.9
20260903233015 70 25 7.0 17.0 0.00 0.00 0.00 82 1009.9
20260903231514 70 85 6.0 15.0 0.00 0.00 0.00 81 1009.9
20260903230025 70 63 9.0 16.0 0.00 0.00 0.00 80 1010.1
20260903224512 70 58 3.0 10.0 0.00 0.00 0.00 81 1010.4
20260903223011 70 89 5.0 15.0 0.00 0.00 0.00 81 1010.4
20260903221513 70 49 5.0 14.0 0.00 0.00 0.00 80 1010.5
20260903220011 71 63 6.0 16.0 0.00 0.00 0.00 79 1010.3
20260903214518 71 45 5.0 15.0 0.00 0.00 0.00 79 1010.7
20260903213018 71 54 8.0 14.0 0.00 0.00 0.00 79 1010.5